Time,TemperatureF,DewpointF,PressureIn,WindDirection,WindDirectionDegrees,WindSpeedMPH,WindSpeedGustMPH,Humidity,HourlyPrecipIn,Conditions,Clouds,dailyrainin,SoftwareType,DateUTC
2013-02-28 00:00:00,34.6,34.0,29.56,West,268,0.0,-999.0,95,-99.99,,,2.00,ADS-WS1 bash script,2013-02-28 05:00:00,
2013-02-28 00:05:00,34.6,34.0,29.56,South,179,1.0,-999.0,95,-99.99,,,2.00,ADS-WS1 bash script,2013-02-28 05:05:00,
2013-02-28 00:10:00,34.6,34.0,29.56,WNW,283,0.0,-999.0,95,-99.99,,,2.00,ADS-WS1 bash script,2013-02-28 05:10:00,
2013-02-28 00:20:00,34.6,34.0,29.56,West,268,1.0,-999.0,96,-99.99,,,2.00,ADS-WS1 bash script,2013-02-28 05:20:00,
2013-02-28 00:25:00,34.6,34.0,29.56,West,268,1.0,-999.0,96,-99.99,,,2.00,ADS-WS1 bash script,2013-02-28 05:25:00,
2013-02-28 00:30:00,34.5,33.0,29.56,West,268,1.0,-999.0,96,-99.99,,,2.00,ADS-WS1 bash script,2013-02-28 05:30:00,
2013-02-28 00:35:00,34.5,33.0,29.56,West,268,0.0,-999.0,96,-99.99,,,2.00,ADS-WS1 bash script,2013-02-28 05:35:00,
2013-02-28 00:40:00,34.6,34.0,29.56,WSW,254,4.0,-999.0,96,-99.99,,,2.00,ADS-WS1 bash script,2013-02-28 05:40:00,
2013-02-28 00:45:00,34.5,33.0,29.56,SW,234,3.0,-999.0,96,-99.99,,,2.00,ADS-WS1 bash script,2013-02-28 05:45:00,
2013-02-28 00:50:00,34.5,33.0,29.56,WSW,238,1.0,-999.0,96,-99.99,,,2.00,ADS-WS1 bash script,2013-02-28 05:50:00,
2013-02-28 00:55:00,34.5,33.0,29.56,WNW,286,2.0,-999.0,96,-99.99,,,2.00,ADS-WS1 bash script,2013-02-28 05:55:00,
2013-02-28 01:00:00,34.5,33.0,29.56,West,268,2.0,-999.0,96,-99.99,,,2.00,ADS-WS1 bash script,2013-02-28 06:00:00,
2013-02-28 01:05:00,34.5,33.0,29.56,SSW,200,2.0,-999.0,95,-99.99,,,2.00,ADS-WS1 bash script,2013-02-28 06:05:00,
2013-02-28 01:10:00,34.5,33.0,29.56,NW,313,1.0,-999.0,96,-99.99,,,2.00,ADS-WS1 bash script,2013-02-28 06:10:00,
2013-02-28 01:15:00,34.5,33.0,29.56,West,268,1.0,-999.0,95,-99.99,,,2.00,ADS-WS1 bash script,2013-02-28 06:15:00,
2013-02-28 01:20:00,34.5,33.0,29.56,West,268,2.0,-999.0,95,-99.99,,,2.00,ADS-WS1 bash script,2013-02-28 06:20:00,
2013-02-28 01:25:00,34.5,33.0,29.56,WSW,254,1.0,-999.0,95,-99.99,,,2.00,ADS-WS1 bash script,2013-02-28 06:25:00,
2013-02-28 01:30:00,34.5,33.0,29.56,WSW,254,2.0,-999.0,95,-99.99,,,2.00,ADS-WS1 bash script,2013-02-28 06:30:00,
2013-02-28 01:35:00,34.5,33.0,29.56,West,268,0.0,-999.0,95,-99.99,,,2.00,ADS-WS1 bash script,2013-02-28 06:35:00,
2013-02-28 01:40:00,34.5,33.0,29.57,West,268,3.0,-999.0,96,-99.99,,,2.00,ADS-WS1 bash script,2013-02-28 06:40:00,
2013-02-28 01:45:00,34.5,33.0,29.57,West,268,3.0,-999.0,95,-99.99,,,2.00,ADS-WS1 bash script,2013-02-28 06:45:00,
2013-02-28 01:50:00,34.5,33.0,29.57,West,268,0.0,-999.0,96,-99.99,,,2.00,ADS-WS1 bash script,2013-02-28 06:50:00,
2013-02-28 01:55:00,34.5,33.0,29.57,WNW,300,3.0,-999.0,96,-99.99,,,2.00,ADS-WS1 bash script,2013-02-28 06:55:00,
2013-02-28 02:00:00,34.5,33.0,29.56,WSW,256,2.0,-999.0,95,-99.99,,,2.00,ADS-WS1 bash script,2013-02-28 07:00:00,
2013-02-28 02:05:00,34.5,33.0,29.57,NW,313,2.0,-999.0,95,-99.99,,,2.00,ADS-WS1 bash script,2013-02-28 07:05:00,
2013-02-28 02:10:00,34.5,33.0,29.57,WNW,283,2.0,-999.0,95,-99.99,,,2.00,ADS-WS1 bash script,2013-02-28 07:10:00,
2013-02-28 02:15:00,34.5,33.0,29.57,WNW,286,2.0,-999.0,95,-99.99,,,2.00,ADS-WS1 bash script,2013-02-28 07:15:00,
2013-02-28 02:20:00,34.6,34.0,29.57,West,279,2.0,-999.0,96,-99.99,,,2.00,ADS-WS1 bash script,2013-02-28 07:20:00,
2013-02-28 02:25:00,34.6,34.0,29.57,West,268,2.0,-999.0,95,-99.99,,,2.00,ADS-WS1 bash script,2013-02-28 07:25:00,
2013-02-28 02:30:00,34.5,33.0,29.57,West,261,2.0,-999.0,95,-99.99,,,2.00,ADS-WS1 bash script,2013-02-28 07:30:00,
2013-02-28 02:35:00,34.5,33.0,29.57,West,275,1.0,-999.0,95,-99.99,,,2.00,ADS-WS1 bash script,2013-02-28 07:35:00,
2013-02-28 02:40:00,34.5,33.0,29.57,West,268,0.0,-999.0,95,-99.99,,,2.00,ADS-WS1 bash script,2013-02-28 07:40:00,
2013-02-28 02:45:00,34.6,34.0,29.57,West,261,2.0,-999.0,95,-99.99,,,2.00,ADS-WS1 bash script,2013-02-28 07:45:00,
2013-02-28 02:50:00,34.6,34.0,29.57,West,268,2.0,-999.0,96,-99.99,,,2.00,ADS-WS1 bash script,2013-02-28 07:50:00,
2013-02-28 02:55:00,34.6,34.0,29.56,West,268,1.0,-999.0,96,-99.99,,,2.00,ADS-WS1 bash script,2013-02-28 07:55:00,
2013-02-28 03:00:00,34.6,34.0,29.56,West,268,2.0,-999.0,96,-99.99,,,2.00,ADS-WS1 bash script,2013-02-28 08:00:00,
2013-02-28 03:05:00,34.6,34.0,29.56,NW,313,1.0,-999.0,96,-99.99,,,2.00,ADS-WS1 bash script,2013-02-28 08:05:00,
2013-02-28 03:10:00,34.6,34.0,29.57,NW,304,2.0,-999.0,96,-99.99,,,2.00,ADS-WS1 bash script,2013-02-28 08:10:00,
2013-02-28 03:15:00,34.6,34.0,29.56,NW,309,2.0,-999.0,96,-99.99,,,2.00,ADS-WS1 bash script,2013-02-28 08:15:00,
2013-02-28 03:20:00,34.6,34.0,29.56,NW,313,2.0,-999.0,96,-99.99,,,2.00,ADS-WS1 bash script,2013-02-28 08:20:00,
2013-02-28 03:25:00,34.6,34.0,29.56,NW,313,2.0,-999.0,96,-99.99,,,2.00,ADS-WS1 bash script,2013-02-28 08:25:00,
2013-02-28 03:30:00,34.6,34.0,29.56,NW,313,1.0,-999.0,96,-99.99,,,2.00,ADS-WS1 bash script,2013-02-28 08:30:00,
2013-02-28 03:35:00,34.6,34.0,29.56,NW,313,2.0,-999.0,96,-99.99,,,2.00,ADS-WS1 bash script,2013-02-28 08:35:00,
2013-02-28 03:40:00,34.8,34.0,29.56,West,272,2.0,-999.0,96,-99.99,,,2.00,ADS-WS1 bash script,2013-02-28 08:40:00,
2013-02-28 03:45:00,34.8,34.0,29.57,NW,304,2.0,-999.0,96,-99.99,,,2.00,ADS-WS1 bash script,2013-02-28 08:45:00,
2013-02-28 03:50:00,34.8,34.0,29.56,NW,313,1.0,-999.0,97,-99.99,,,2.00,ADS-WS1 bash script,2013-02-28 08:50:00,
2013-02-28 04:00:00,34.8,34.0,29.56,NW,313,0.0,-999.0,97,-99.99,,,2.00,ADS-WS1 bash script,2013-02-28 09:00:00,
2013-02-28 04:05:00,34.8,34.0,29.56,NW,306,1.0,-999.0,97,-99.99,,,2.00,ADS-WS1 bash script,2013-02-28 09:05:00,
2013-02-28 04:10:00,34.8,34.0,29.57,North,0,2.0,-999.0,97,-99.99,,,2.00,ADS-WS1 bash script,2013-02-28 09:10:00,
2013-02-28 04:15:00,34.8,34.0,29.56,NW,313,0.0,-999.0,96,-99.99,,,2.00,ADS-WS1 bash script,2013-02-28 09:15:00,
2013-02-28 04:25:00,34.6,34.0,29.57,NW,313,3.0,-999.0,97,-99.99,,,2.00,ADS-WS1 bash script,2013-02-28 09:25:00,
2013-02-28 04:30:00,34.6,34.0,29.56,NNW,327,1.0,-999.0,97,-99.99,,,2.00,ADS-WS1 bash script,2013-02-28 09:30:00,
2013-02-28 04:35:00,34.6,34.0,29.57,NW,313,1.0,-999.0,96,-99.99,,,2.00,ADS-WS1 bash script,2013-02-28 09:35:00,
2013-02-28 04:40:00,34.6,34.0,29.57,NW,313,1.0,-999.0,96,-99.99,,,2.00,ADS-WS1 bash script,2013-02-28 09:40:00,
2013-02-28 04:45:00,34.6,34.0,29.57,North,2,3.0,-999.0,96,-99.99,,,2.00,ADS-WS1 bash script,2013-02-28 09:45:00,
2013-02-28 04:50:00,34.6,34.0,29.57,North,351,1.0,-999.0,96,-99.99,,,2.00,ADS-WS1 bash script,2013-02-28 09:50:00,
2013-02-28 05:00:00,34.6,34.0,29.58,NNW,343,2.0,-999.0,96,-99.99,,,2.00,ADS-WS1 bash script,2013-02-28 10:00:00,
2013-02-28 05:05:00,34.6,34.0,29.57,NW,316,1.0,-999.0,96,-99.99,,,2.00,ADS-WS1 bash script,2013-02-28 10:05:00,
2013-02-28 05:10:00,34.6,34.0,29.58,NNW,338,2.0,-999.0,96,-99.99,,,2.00,ADS-WS1 bash script,2013-02-28 10:10:00,
2013-02-28 05:15:00,34.6,34.0,29.58,NW,320,4.0,-999.0,95,-99.99,,,2.00,ADS-WS1 bash script,2013-02-28 10:15:00,
2013-02-28 05:20:00,34.6,34.0,29.58,NNW,328,1.0,-999.0,96,-99.99,,,2.00,ADS-WS1 bash script,2013-02-28 10:20:00,
2013-02-28 05:25:00,34.6,34.0,29.58,NW,320,2.0,-999.0,96,-99.99,,,2.00,ADS-WS1 bash script,2013-02-28 10:25:00,
2013-02-28 05:30:00,34.6,34.0,29.58,North,351,2.0,-999.0,97,-99.99,,,2.00,ADS-WS1 bash script,2013-02-28 10:30:00,
2013-02-28 05:35:00,34.6,34.0,29.58,NNW,347,1.0,-999.0,96,-99.99,,,2.00,ADS-WS1 bash script,2013-02-28 10:35:00,
2013-02-28 05:40:00,34.6,34.0,29.58,NNW,340,3.0,-999.0,96,-99.99,,,2.00,ADS-WS1 bash script,2013-02-28 10:40:00,
2013-02-28 05:45:00,34.6,34.0,29.58,NNW,343,4.0,-999.0,96,-99.99,,,2.00,ADS-WS1 bash script,2013-02-28 10:45:00,
2013-02-28 05:50:00,34.6,34.0,29.58,NW,317,2.0,-999.0,97,-99.99,,,2.00,ADS-WS1 bash script,2013-02-28 10:50:00,
2013-02-28 05:55:00,34.6,34.0,29.58,WNW,290,2.0,-999.0,97,-99.99,,,2.00,ADS-WS1 bash script,2013-02-28 10:55:00,
2013-02-28 06:00:00,34.6,34.0,29.59,NE,43,3.0,-999.0,96,-99.99,,,2.00,ADS-WS1 bash script,2013-02-28 11:00:00,
2013-02-28 06:05:00,34.6,34.0,29.58,North,0,3.0,-999.0,96,-99.99,,,2.00,ADS-WS1 bash script,2013-02-28 11:05:00,
2013-02-28 06:10:00,34.6,34.0,29.58,North,0,4.0,-999.0,95,-99.99,,,2.00,ADS-WS1 bash script,2013-02-28 11:10:00,
2013-02-28 06:15:00,34.6,34.0,29.59,North,11,2.0,-999.0,95,-99.99,,,2.00,ADS-WS1 bash script,2013-02-28 11:15:00,
2013-02-28 06:20:00,34.6,34.0,29.59,NNW,337,2.0,-999.0,96,-99.99,,,2.00,ADS-WS1 bash script,2013-02-28 11:20:00,
2013-02-28 06:25:00,34.6,34.0,29.59,NW,313,5.0,-999.0,96,-99.99,,,2.00,ADS-WS1 bash script,2013-02-28 11:25:00,
2013-02-28 06:30:00,34.6,34.0,29.59,NW,313,4.0,-999.0,95,-99.99,,,2.00,ADS-WS1 bash script,2013-02-28 11:30:00,
2013-02-28 06:35:00,34.6,34.0,29.60,WNW,290,3.0,-999.0,95,-99.99,,,2.00,ADS-WS1 bash script,2013-02-28 11:35:00,
2013-02-28 06:40:00,34.6,33.0,29.60,NW,313,4.0,-999.0,94,-99.99,,,2.00,ADS-WS1 bash script,2013-02-28 11:40:00,
2013-02-28 06:50:00,34.6,33.0,29.60,NNW,328,4.0,-999.0,94,-99.99,,,2.00,ADS-WS1 bash script,2013-02-28 11:50:00,
2013-02-28 06:55:00,34.6,33.0,29.60,North,0,4.0,-999.0,94,-99.99,,,2.00,ADS-WS1 bash script,2013-02-28 11:55:00,
2013-02-28 07:00:00,34.6,33.0,29.61,NNW,344,4.0,-999.0,94,-99.99,,,2.00,ADS-WS1 bash script,2013-02-28 12:00:00,
2013-02-28 07:05:00,34.6,33.0,29.61,North,2,3.0,-999.0,94,-99.99,,,2.00,ADS-WS1 bash script,2013-02-28 12:05:00,
2013-02-28 07:10:00,34.6,34.0,29.61,North,350,5.0,-999.0,95,-99.99,,,2.00,ADS-WS1 bash script,2013-02-28 12:10:00,
2013-02-28 07:15:00,34.6,33.0,29.61,NNE,21,1.0,-999.0,94,-99.99,,,2.00,ADS-WS1 bash script,2013-02-28 12:15:00,
2013-02-28 07:20:00,34.6,34.0,29.61,NNW,347,5.0,-999.0,95,-99.99,,,2.00,ADS-WS1 bash script,2013-02-28 12:20:00,
2013-02-28 07:25:00,34.6,33.0,29.62,NNW,327,3.0,-999.0,94,-99.99,,,3.00,ADS-WS1 bash script,2013-02-28 12:25:00,
2013-02-28 07:30:00,34.6,34.0,29.61,NNW,331,1.0,-999.0,95,-99.99,,,3.00,ADS-WS1 bash script,2013-02-28 12:30:00,
2013-02-28 07:35:00,34.6,33.0,29.62,NNW,343,1.0,-999.0,94,-99.99,,,3.00,ADS-WS1 bash script,2013-02-28 12:35:00,
2013-02-28 07:40:00,34.6,33.0,29.62,NNW,338,2.0,-999.0,94,-99.99,,,3.00,ADS-WS1 bash script,2013-02-28 12:40:00,
2013-02-28 07:45:00,34.6,33.0,29.62,North,0,4.0,-999.0,94,-99.99,,,3.00,ADS-WS1 bash script,2013-02-28 12:45:00,
2013-02-28 07:50:00,34.6,33.0,29.63,NNW,341,3.0,-999.0,94,-99.99,,,3.00,ADS-WS1 bash script,2013-02-28 12:50:00,
2013-02-28 07:55:00,34.8,34.0,29.63,NW,316,4.0,-999.0,95,-99.99,,,3.00,ADS-WS1 bash script,2013-02-28 12:55:00,
2013-02-28 08:00:00,34.8,33.0,29.63,NNW,340,3.0,-999.0,94,-99.99,,,3.00,ADS-WS1 bash script,2013-02-28 13:00:00,
2013-02-28 08:10:00,35.0,33.0,29.63,NNW,333,4.0,-999.0,94,-99.99,,,3.00,ADS-WS1 bash script,2013-02-28 13:10:00,
2013-02-28 08:15:00,35.0,33.0,29.63,NW,313,4.0,-999.0,93,-99.99,,,3.00,ADS-WS1 bash script,2013-02-28 13:15:00,
2013-02-28 08:20:00,35.2,33.0,29.64,NNW,338,5.0,-999.0,94,-99.99,,,3.00,ADS-WS1 bash script,2013-02-28 13:20:00,
2013-02-28 08:25:00,35.4,33.0,29.65,NW,324,3.0,-999.0,93,-99.99,,,3.00,ADS-WS1 bash script,2013-02-28 13:25:00,
2013-02-28 08:30:00,35.4,33.0,29.64,NNW,328,3.0,-999.0,93,-99.99,,,3.00,ADS-WS1 bash script,2013-02-28 13:30:00,
2013-02-28 08:35:00,35.4,33.0,29.65,NNW,348,6.0,-999.0,93,-99.99,,,3.00,ADS-WS1 bash script,2013-02-28 13:35:00,
2013-02-28 08:40:00,35.4,33.0,29.65,NNE,19,2.0,-999.0,92,-99.99,,,3.00,ADS-WS1 bash script,2013-02-28 13:40:00,
2013-02-28 08:45:00,35.4,33.0,29.65,North,4,1.0,-999.0,92,-99.99,,,3.00,ADS-WS1 bash script,2013-02-28 13:45:00,
2013-02-28 08:50:00,35.4,33.0,29.65,North,350,7.0,-999.0,92,-99.99,,,3.00,ADS-WS1 bash script,2013-02-28 13:50:00,
2013-02-28 08:55:00,35.7,34.0,29.66,North,0,1.0,-999.0,92,-99.99,,,3.00,ADS-WS1 bash script,2013-02-28 13:55:00,
2013-02-28 09:05:00,36.1,34.0,29.66,WNW,290,5.0,-999.0,93,-99.99,,,3.00,ADS-WS1 bash script,2013-02-28 14:05:00,
2013-02-28 09:10:00,36.3,33.0,29.67,NE,36,4.0,-999.0,91,-99.99,,,3.00,ADS-WS1 bash script,2013-02-28 14:10:00,
2013-02-28 09:15:00,36.4,33.0,29.66,NNE,15,3.0,-999.0,91,-99.99,,,3.00,ADS-WS1 bash script,2013-02-28 14:15:00,
2013-02-28 09:20:00,36.6,34.0,29.66,NW,316,3.0,-999.0,90,-99.99,,,3.00,ADS-WS1 bash script,2013-02-28 14:20:00,
2013-02-28 09:25:00,36.8,34.0,29.67,NNE,21,1.0,-999.0,91,-99.99,,,5.00,ADS-WS1 bash script,2013-02-28 14:25:00,
2013-02-28 09:30:00,36.8,34.0,29.67,NNE,32,8.0,-999.0,90,-99.99,,,6.00,ADS-WS1 bash script,2013-02-28 14:30:00,
2013-02-28 09:40:00,36.8,34.0,29.67,North,7,1.0,-999.0,89,-99.99,,,8.00,ADS-WS1 bash script,2013-02-28 14:40:00,
2013-02-28 09:45:00,37.2,34.0,29.68,NNW,340,8.0,-999.0,89,-99.99,,,11.00,ADS-WS1 bash script,2013-02-28 14:45:00,
2013-02-28 09:50:00,37.3,34.0,29.68,North,355,8.0,-999.0,90,-99.99,,,12.00,ADS-WS1 bash script,2013-02-28 14:50:00,
2013-02-28 09:55:00,37.5,35.0,29.67,North,4,5.0,-999.0,89,-99.99,,,12.00,ADS-WS1 bash script,2013-02-28 14:55:00,
2013-02-28 10:00:00,37.7,34.0,29.68,North,350,3.0,-999.0,87,-99.99,,,13.00,ADS-WS1 bash script,2013-02-28 15:00:00,
2013-02-28 10:05:00,37.9,33.0,29.68,NNE,29,6.0,-999.0,86,-99.99,,,13.00,ADS-WS1 bash script,2013-02-28 15:05:00,
2013-02-28 10:10:00,37.9,33.0,29.68,North,7,3.0,-999.0,86,-99.99,,,13.00,ADS-WS1 bash script,2013-02-28 15:10:00,
2013-02-28 10:15:00,37.7,33.0,29.69,NNE,33,3.0,-999.0,85,-99.99,,,13.00,ADS-WS1 bash script,2013-02-28 15:15:00,
2013-02-28 10:20:00,37.7,33.0,29.69,North,11,6.0,-999.0,86,-99.99,,,13.00,ADS-WS1 bash script,2013-02-28 15:20:00,
2013-02-28 10:25:00,37.5,33.0,29.69,NNW,330,3.0,-999.0,86,-99.99,,,13.00,ADS-WS1 bash script,2013-02-28 15:25:00,
2013-02-28 10:35:00,37.5,33.0,29.69,NNE,14,9.0,-999.0,84,-99.99,,,13.00,ADS-WS1 bash script,2013-02-28 15:35:00,
2013-02-28 10:40:00,37.5,33.0,29.69,NNE,21,9.0,-999.0,84,-99.99,,,13.00,ADS-WS1 bash script,2013-02-28 15:40:00,
2013-02-28 10:45:00,37.9,33.0,29.69,NNE,29,2.0,-999.0,84,-99.99,,,13.00,ADS-WS1 bash script,2013-02-28 15:45:00,
2013-02-28 10:50:00,38.4,33.0,29.69,North,2,5.0,-999.0,84,-99.99,,,13.00,ADS-WS1 bash script,2013-02-28 15:50:00,
2013-02-28 10:55:00,39.3,33.0,29.69,WNW,290,3.0,-999.0,82,-99.99,,,13.00,ADS-WS1 bash script,2013-02-28 15:55:00,
2013-02-28 11:05:00,38.8,33.0,29.70,North,0,4.0,-999.0,83,-99.99,,,13.00,ADS-WS1 bash script,2013-02-28 16:05:00,
2013-02-28 11:15:00,38.6,33.0,29.70,North,1,5.0,-999.0,83,-99.99,,,13.00,ADS-WS1 bash script,2013-02-28 16:15:00,
2013-02-28 11:20:00,38.6,33.0,29.70,North,0,3.0,-999.0,82,-99.99,,,13.00,ADS-WS1 bash script,2013-02-28 16:20:00,
2013-02-28 11:25:00,38.6,33.0,29.71,NNW,347,2.0,-999.0,82,-99.99,,,13.00,ADS-WS1 bash script,2013-02-28 16:25:00,
2013-02-28 11:35:00,38.2,31.0,29.71,North,0,9.0,-999.0,80,-99.99,,,13.00,ADS-WS1 bash script,2013-02-28 16:35:00,
2013-02-28 11:40:00,38.2,32.0,29.72,North,9,6.0,-999.0,82,-99.99,,,13.00,ADS-WS1 bash script,2013-02-28 16:40:00,
2013-02-28 11:45:00,38.4,32.0,29.72,North,0,7.0,-999.0,81,-99.99,,,13.00,ADS-WS1 bash script,2013-02-28 16:45:00,
2013-02-28 11:50:00,38.8,32.0,29.72,North,0,4.0,-999.0,78,-99.99,,,13.00,ADS-WS1 bash script,2013-02-28 16:50:00,
2013-02-28 11:55:00,39.1,32.0,29.72,NE,35,3.0,-999.0,78,-99.99,,,13.00,ADS-WS1 bash script,2013-02-28 16:55:00,
2013-02-28 12:05:00,39.0,32.0,29.73,North,5,6.0,-999.0,80,-99.99,,,13.00,ADS-WS1 bash script,2013-02-28 17:05:00,
2013-02-28 12:10:00,39.0,32.0,29.72,North,0,3.0,-999.0,80,-99.99,,,13.00,ADS-WS1 bash script,2013-02-28 17:10:00,
2013-02-28 12:15:00,39.1,32.0,29.72,NE,43,9.0,-999.0,79,-99.99,,,13.00,ADS-WS1 bash script,2013-02-28 17:15:00,
2013-02-28 12:25:00,39.5,32.0,29.73,NE,36,6.0,-999.0,77,-99.99,,,13.00,ADS-WS1 bash script,2013-02-28 17:25:00,
2013-02-28 12:30:00,39.3,31.0,29.73,NNE,26,10.0,-999.0,76,-99.99,,,13.00,ADS-WS1 bash script,2013-02-28 17:30:00,
2013-02-28 12:35:00,39.3,31.0,29.73,NE,43,4.0,-999.0,76,-99.99,,,13.00,ADS-WS1 bash script,2013-02-28 17:35:00,
2013-02-28 12:45:00,39.1,32.0,29.73,NNW,335,10.0,-999.0,78,-99.99,,,13.00,ADS-WS1 bash script,2013-02-28 17:45:00,
2013-02-28 12:50:00,38.8,32.0,29.73,North,0,6.0,-999.0,78,-99.99,,,13.00,ADS-WS1 bash script,2013-02-28 17:50:00,
2013-02-28 13:00:00,38.6,32.0,29.74,North,350,4.0,-999.0,80,-99.99,,,13.00,ADS-WS1 bash script,2013-02-28 18:00:00,
2013-02-28 13:05:00,38.2,31.0,29.74,NNE,26,8.0,-999.0,79,-99.99,,,13.00,ADS-WS1 bash script,2013-02-28 18:05:00,
2013-02-28 13:10:00,38.2,31.0,29.74,North,8,8.0,-999.0,78,-99.99,,,13.00,ADS-WS1 bash script,2013-02-28 18:10:00,
2013-02-28 13:15:00,38.4,31.0,29.74,NNE,29,8.0,-999.0,78,-99.99,,,13.00,ADS-WS1 bash script,2013-02-28 18:15:00,
2013-02-28 13:25:00,38.6,30.0,29.74,NNE,25,4.0,-999.0,75,-99.99,,,13.00,ADS-WS1 bash script,2013-02-28 18:25:00,
2013-02-28 13:30:00,38.8,30.0,29.75,NNE,21,2.0,-999.0,75,-99.99,,,13.00,ADS-WS1 bash script,2013-02-28 18:30:00,
2013-02-28 13:35:00,38.8,31.0,29.74,NW,313,7.0,-999.0,76,-99.99,,,13.00,ADS-WS1 bash script,2013-02-28 18:35:00,
2013-02-28 13:40:00,38.6,31.0,29.75,NNE,12,8.0,-999.0,76,-99.99,,,13.00,ADS-WS1 bash script,2013-02-28 18:40:00,
2013-02-28 13:45:00,38.4,30.0,29.75,North,9,9.0,-999.0,77,-99.99,,,13.00,ADS-WS1 bash script,2013-02-28 18:45:00,
2013-02-28 13:50:00,38.4,29.0,29.75,North,350,8.0,-999.0,75,-99.99,,,13.00,ADS-WS1 bash script,2013-02-28 18:50:00,
2013-02-28 13:55:00,38.4,29.0,29.75,NNE,18,6.0,-999.0,74,-99.99,,,13.00,ADS-WS1 bash script,2013-02-28 18:55:00,
2013-02-28 14:00:00,38.4,30.0,29.75,North,354,6.0,-999.0,77,-99.99,,,13.00,ADS-WS1 bash script,2013-02-28 19:00:00,
2013-02-28 14:05:00,38.1,31.0,29.76,North,5,3.0,-999.0,78,-99.99,,,13.00,ADS-WS1 bash script,2013-02-28 19:05:00,
2013-02-28 14:10:00,37.7,31.0,29.75,North,8,10.0,-999.0,79,-99.99,,,13.00,ADS-WS1 bash script,2013-02-28 19:10:00,
2013-02-28 14:15:00,37.7,30.0,29.75,NE,43,8.0,-999.0,77,-99.99,,,13.00,ADS-WS1 bash script,2013-02-28 19:15:00,
2013-02-28 14:20:00,37.9,31.0,29.76,NNE,29,6.0,-999.0,78,-99.99,,,13.00,ADS-WS1 bash script,2013-02-28 19:20:00,
2013-02-28 14:25:00,38.2,30.0,29.76,NE,50,5.0,-999.0,76,-99.99,,,13.00,ADS-WS1 bash script,2013-02-28 19:25:00,
2013-02-28 14:30:00,38.2,29.0,29.76,North,8,3.0,-999.0,75,-99.99,,,13.00,ADS-WS1 bash script,2013-02-28 19:30:00,
2013-02-28 14:35:00,38.1,30.0,29.77,NNE,15,5.0,-999.0,76,-99.99,,,13.00,ADS-WS1 bash script,2013-02-28 19:35:00,
2013-02-28 14:40:00,38.1,30.0,29.77,North,5,6.0,-999.0,76,-99.99,,,13.00,ADS-WS1 bash script,2013-02-28 19:40:00,
2013-02-28 14:45:00,38.2,29.0,29.77,NNE,29,1.0,-999.0,75,-99.99,,,13.00,ADS-WS1 bash script,2013-02-28 19:45:00,
2013-02-28 14:55:00,38.2,29.0,29.77,NE,40,10.0,-999.0,75,-99.99,,,13.00,ADS-WS1 bash script,2013-02-28 19:55:00,
2013-02-28 15:00:00,38.2,29.0,29.77,NNW,335,8.0,-999.0,74,-99.99,,,13.00,ADS-WS1 bash script,2013-02-28 20:00:00,
2013-02-28 15:05:00,37.9,29.0,29.77,NNW,347,8.0,-999.0,74,-99.99,,,13.00,ADS-WS1 bash script,2013-02-28 20:05:00,
2013-02-28 15:10:00,37.9,30.0,29.78,NNE,32,6.0,-999.0,76,-99.99,,,13.00,ADS-WS1 bash script,2013-02-28 20:10:00,
2013-02-28 15:15:00,37.7,30.0,29.78,NNE,29,4.0,-999.0,76,-99.99,,,13.00,ADS-WS1 bash script,2013-02-28 20:15:00,
2013-02-28 15:20:00,37.7,30.0,29.78,NE,35,9.0,-999.0,76,-99.99,,,13.00,ADS-WS1 bash script,2013-02-28 20:20:00,
2013-02-28 15:25:00,37.5,29.0,29.78,North,1,10.0,-999.0,75,-99.99,,,13.00,ADS-WS1 bash script,2013-02-28 20:25:00,
2013-02-28 15:30:00,37.5,30.0,29.78,NNE,19,7.0,-999.0,76,-99.99,,,13.00,ADS-WS1 bash script,2013-02-28 20:30:00,
2013-02-28 15:40:00,37.3,28.0,29.79,NNE,21,10.0,-999.0,75,-99.99,,,13.00,ADS-WS1 bash script,2013-02-28 20:40:00,
2013-02-28 15:45:00,37.2,29.0,29.79,NW,324,8.0,-999.0,76,-99.99,,,13.00,ADS-WS1 bash script,2013-02-28 20:45:00,
2013-02-28 15:50:00,37.2,29.0,29.80,NNW,333,3.0,-999.0,76,-99.99,,,13.00,ADS-WS1 bash script,2013-02-28 20:50:00,
2013-02-28 15:55:00,37.2,29.0,29.80,North,1,6.0,-999.0,76,-99.99,,,13.00,ADS-WS1 bash script,2013-02-28 20:55:00,
2013-02-28 16:00:00,37.0,29.0,29.80,North,0,6.0,-999.0,76,-99.99,,,13.00,ADS-WS1 bash script,2013-02-28 21:00:00,
2013-02-28 16:05:00,36.8,29.0,29.81,North,0,1.0,-999.0,77,-99.99,,,0.00,ADS-WS1 bash script,2013-02-28 21:05:00,
2013-02-28 16:10:00,36.8,29.0,29.81,NNW,348,4.0,-999.0,76,-99.99,,,0.00,ADS-WS1 bash script,2013-02-28 21:10:00,
2013-02-28 16:15:00,36.6,29.0,29.81,NNE,21,4.0,-999.0,76,-99.99,,,0.00,ADS-WS1 bash script,2013-02-28 21:15:00,
2013-02-28 16:20:00,36.4,28.0,29.81,NW,306,4.0,-999.0,76,-99.99,,,0.00,ADS-WS1 bash script,2013-02-28 21:20:00,
2013-02-28 16:25:00,36.4,28.0,29.81,NNE,15,3.0,-999.0,76,-99.99,,,0.00,ADS-WS1 bash script,2013-02-28 21:25:00,
2013-02-28 16:30:00,36.4,28.0,29.82,North,0,3.0,-999.0,77,-99.99,,,0.00,ADS-WS1 bash script,2013-02-28 21:30:00,
2013-02-28 16:35:00,36.3,28.0,29.82,NE,43,3.0,-999.0,77,-99.99,,,0.00,ADS-WS1 bash script,2013-02-28 21:35:00,
2013-02-28 16:40:00,36.3,28.0,29.82,North,0,2.0,-999.0,76,-99.99,,,0.00,ADS-WS1 bash script,2013-02-28 21:40:00,
2013-02-28 16:45:00,36.1,28.0,29.82,NW,317,3.0,-999.0,76,-99.99,,,0.00,ADS-WS1 bash script,2013-02-28 21:45:00,
2013-02-28 16:50:00,36.1,28.0,29.82,NE,43,3.0,-999.0,77,-99.99,,,0.00,ADS-WS1 bash script,2013-02-28 21:50:00,
2013-02-28 16:55:00,35.9,28.0,29.83,NNE,21,6.0,-999.0,77,-99.99,,,0.00,ADS-WS1 bash script,2013-02-28 21:55:00,
2013-02-28 17:00:00,35.9,28.0,29.83,NE,35,3.0,-999.0,77,-99.99,,,0.00,ADS-WS1 bash script,2013-02-28 22:00:00,
2013-02-28 17:05:00,35.9,28.0,29.83,NNW,343,6.0,-999.0,76,-99.99,,,0.00,ADS-WS1 bash script,2013-02-28 22:05:00,
2013-02-28 17:15:00,35.7,28.0,29.84,NE,43,3.0,-999.0,76,-99.99,,,0.00,ADS-WS1 bash script,2013-02-28 22:15:00,
2013-02-28 17:20:00,35.7,29.0,29.84,NE,43,4.0,-999.0,78,-99.99,,,0.00,ADS-WS1 bash script,2013-02-28 22:20:00,
2013-02-28 17:25:00,35.5,28.0,29.84,NNE,21,9.0,-999.0,76,-99.99,,,0.00,ADS-WS1 bash script,2013-02-28 22:25:00,
2013-02-28 17:30:00,35.5,28.0,29.84,NE,38,6.0,-999.0,77,-99.99,,,0.00,ADS-WS1 bash script,2013-02-28 22:30:00,
2013-02-28 17:35:00,35.5,28.0,29.84,North,350,3.0,-999.0,77,-99.99,,,0.00,ADS-WS1 bash script,2013-02-28 22:35:00,
2013-02-28 17:40:00,35.4,28.0,29.85,North,0,4.0,-999.0,78,-99.99,,,0.00,ADS-WS1 bash script,2013-02-28 22:40:00,
2013-02-28 17:50:00,35.2,27.0,29.86,NNE,14,4.0,-999.0,76,-99.99,,,0.00,ADS-WS1 bash script,2013-02-28 22:50:00,
2013-02-28 17:55:00,35.0,28.0,29.86,NNE,21,2.0,-999.0,78,-99.99,,,0.00,ADS-WS1 bash script,2013-02-28 22:55:00,
2013-02-28 18:00:00,35.0,28.0,29.86,NE,38,8.0,-999.0,78,-99.99,,,0.00,ADS-WS1 bash script,2013-02-28 23:00:00,
2013-02-28 18:05:00,34.8,28.0,29.86,NNE,32,8.0,-999.0,79,-99.99,,,0.00,ADS-WS1 bash script,2013-02-28 23:05:00,
2013-02-28 18:10:00,34.8,28.0,29.87,NNE,26,9.0,-999.0,79,-99.99,,,0.00,ADS-WS1 bash script,2013-02-28 23:10:00,
2013-02-28 18:15:00,34.6,28.0,29.87,North,354,8.0,-999.0,80,-99.99,,,0.00,ADS-WS1 bash script,2013-02-28 23:15:00,
2013-02-28 18:20:00,34.5,27.0,29.87,NNE,21,8.0,-999.0,80,-99.99,,,0.00,ADS-WS1 bash script,2013-02-28 23:20:00,
2013-02-28 18:30:00,34.3,28.0,29.87,NE,43,6.0,-999.0,81,-99.99,,,0.00,ADS-WS1 bash script,2013-02-28 23:30:00,
2013-02-28 18:40:00,34.1,28.0,29.88,NNE,21,7.0,-999.0,82,-99.99,,,0.00,ADS-WS1 bash script,2013-02-28 23:40:00,
2013-02-28 18:45:00,34.1,28.0,29.88,NE,43,3.0,-999.0,82,-99.99,,,0.00,ADS-WS1 bash script,2013-02-28 23:45:00,
2013-02-28 18:50:00,34.1,28.0,29.88,North,0,2.0,-999.0,82,-99.99,,,0.00,ADS-WS1 bash script,2013-02-28 23:50:00,
2013-02-28 18:55:00,34.1,28.0,29.88,NNE,21,2.0,-999.0,82,-99.99,,,0.00,ADS-WS1 bash script,2013-02-28 23:55:00,
2013-02-28 19:00:00,33.9,28.0,29.89,NNE,16,6.0,-999.0,82,-99.99,,,0.00,ADS-WS1 bash script,2013-03-01 00:00:00,
2013-02-28 19:10:00,33.9,28.0,29.89,North,0,8.0,-999.0,82,-99.99,,,0.00,ADS-WS1 bash script,2013-03-01 00:10:00,
2013-02-28 19:15:00,33.9,28.0,29.90,NNE,14,3.0,-999.0,82,-99.99,,,0.00,ADS-WS1 bash script,2013-03-01 00:15:00,
2013-02-28 19:20:00,33.9,28.0,29.90,NE,36,6.0,-999.0,82,-99.99,,,0.00,ADS-WS1 bash script,2013-03-01 00:20:00,
2013-02-28 19:30:00,33.9,29.0,29.90,NNE,15,3.0,-999.0,84,-99.99,,,0.00,ADS-WS1 bash script,2013-03-01 00:30:00,
2013-02-28 19:35:00,33.7,29.0,29.90,NNE,32,5.0,-999.0,84,-99.99,,,0.00,ADS-WS1 bash script,2013-03-01 00:35:00,
2013-02-28 19:40:00,33.7,28.0,29.91,North,0,3.0,-999.0,83,-99.99,,,0.00,ADS-WS1 bash script,2013-03-01 00:40:00,
2013-02-28 19:45:00,33.6,28.0,29.91,NNE,14,7.0,-999.0,83,-99.99,,,0.00,ADS-WS1 bash script,2013-03-01 00:45:00,
2013-02-28 19:50:00,33.4,28.0,29.91,NE,38,8.0,-999.0,84,-99.99,,,0.00,ADS-WS1 bash script,2013-03-01 00:50:00,
2013-02-28 19:55:00,33.4,28.0,29.91,NNE,29,5.0,-999.0,85,-99.99,,,0.00,ADS-WS1 bash script,2013-03-01 00:55:00,
2013-02-28 20:00:00,33.2,28.0,29.91,NNE,21,2.0,-999.0,85,-99.99,,,1.00,ADS-WS1 bash script,2013-03-01 01:00:00,
2013-02-28 20:05:00,33.2,28.0,29.91,NE,53,5.0,-999.0,85,-99.99,,,1.00,ADS-WS1 bash script,2013-03-01 01:05:00,
2013-02-28 20:10:00,33.0,28.0,29.92,ENE,77,3.0,-999.0,86,-99.99,,,1.00,ADS-WS1 bash script,2013-03-01 01:10:00,
2013-02-28 20:15:00,33.0,28.0,29.92,ENE,66,8.0,-999.0,84,-99.99,,,1.00,ADS-WS1 bash script,2013-03-01 01:15:00,
2013-02-28 20:20:00,33.0,28.0,29.93,NE,53,6.0,-999.0,85,-99.99,,,1.00,ADS-WS1 bash script,2013-03-01 01:20:00,
2013-02-28 20:30:00,32.8,28.0,29.93,North,0,5.0,-999.0,85,-99.99,,,1.00,ADS-WS1 bash script,2013-03-01 01:30:00,
2013-02-28 20:35:00,32.8,28.0,29.93,NNE,25,4.0,-999.0,86,-99.99,,,1.00,ADS-WS1 bash script,2013-03-01 01:35:00,
2013-02-28 20:40:00,32.8,28.0,29.93,NNE,32,7.0,-999.0,84,-99.99,,,1.00,ADS-WS1 bash script,2013-03-01 01:40:00,
2013-02-28 20:50:00,32.8,28.0,29.93,NNE,21,7.0,-999.0,84,-99.99,,,1.00,ADS-WS1 bash script,2013-03-01 01:50:00,
2013-02-28 20:55:00,32.8,28.0,29.93,East,83,3.0,-999.0,85,-99.99,,,1.00,ADS-WS1 bash script,2013-03-01 01:55:00,
2013-02-28 21:00:00,32.8,28.0,29.93,NE,39,8.0,-999.0,85,-99.99,,,1.00,ADS-WS1 bash script,2013-03-01 02:00:00,
2013-02-28 21:05:00,32.8,27.0,29.93,NE,43,3.0,-999.0,83,-99.99,,,1.00,ADS-WS1 bash script,2013-03-01 02:05:00,
2013-02-28 21:10:00,32.8,27.0,29.93,NE,50,6.0,-999.0,82,-99.99,,,1.00,ADS-WS1 bash script,2013-03-01 02:10:00,
2013-02-28 21:15:00,32.8,27.0,29.94,North,11,4.0,-999.0,83,-99.99,,,1.00,ADS-WS1 bash script,2013-03-01 02:15:00,
2013-02-28 21:20:00,32.8,27.0,29.94,North,9,2.0,-999.0,82,-99.99,,,1.00,ADS-WS1 bash script,2013-03-01 02:20:00,
2013-02-28 21:25:00,32.8,28.0,29.94,North,0,3.0,-999.0,84,-99.99,,,1.00,ADS-WS1 bash script,2013-03-01 02:25:00,
2013-02-28 21:30:00,33.0,27.0,29.95,ENE,63,2.0,-999.0,83,-99.99,,,1.00,ADS-WS1 bash script,2013-03-01 02:30:00,
2013-02-28 21:35:00,32.8,28.0,29.94,NE,38,6.0,-999.0,84,-99.99,,,1.00,ADS-WS1 bash script,2013-03-01 02:35:00,
2013-02-28 21:45:00,32.8,27.0,29.95,NE,43,6.0,-999.0,83,-99.99,,,1.00,ADS-WS1 bash script,2013-03-01 02:45:00,
2013-02-28 21:50:00,32.8,27.0,29.94,NNE,32,3.0,-999.0,82,-99.99,,,1.00,ADS-WS1 bash script,2013-03-01 02:50:00,
2013-02-28 21:55:00,32.8,27.0,29.94,NE,46,1.0,-999.0,83,-99.99,,,1.00,ADS-WS1 bash script,2013-03-01 02:55:00,
2013-02-28 22:00:00,32.7,27.0,29.95,NNE,31,4.0,-999.0,83,-99.99,,,1.00,ADS-WS1 bash script,2013-03-01 03:00:00,
2013-02-28 22:10:00,32.7,27.0,29.95,NNW,338,2.0,-999.0,81,-99.99,,,1.00,ADS-WS1 bash script,2013-03-01 03:10:00,
2013-02-28 22:20:00,32.7,27.0,29.95,NNE,32,5.0,-999.0,81,-99.99,,,1.00,ADS-WS1 bash script,2013-03-01 03:20:00,
2013-02-28 22:25:00,32.5,25.0,29.95,NNE,29,2.0,-999.0,80,-99.99,,,1.00,ADS-WS1 bash script,2013-03-01 03:25:00,
2013-02-28 22:30:00,32.7,26.0,29.95,NE,46,4.0,-999.0,80,-99.99,,,1.00,ADS-WS1 bash script,2013-03-01 03:30:00,
2013-02-28 22:40:00,32.5,26.0,29.95,NW,313,1.0,-999.0,81,-99.99,,,1.00,ADS-WS1 bash script,2013-03-01 03:40:00,
2013-02-28 22:50:00,32.3,25.0,29.95,NNW,347,6.0,-999.0,80,-99.99,,,1.00,ADS-WS1 bash script,2013-03-01 03:50:00,
2013-02-28 22:55:00,32.3,26.0,29.95,NNW,347,2.0,-999.0,81,-99.99,,,1.00,ADS-WS1 bash script,2013-03-01 03:55:00,
2013-02-28 23:00:00,32.3,26.0,29.95,North,4,1.0,-999.0,81,-99.99,,,1.00,ADS-WS1 bash script,2013-03-01 04:00:00,
2013-02-28 23:05:00,32.1,26.0,29.95,North,1,3.0,-999.0,81,-99.99,,,1.00,ADS-WS1 bash script,2013-03-01 04:05:00,
2013-02-28 23:10:00,32.3,26.0,29.96,NNE,31,6.0,-999.0,81,-99.99,,,1.00,ADS-WS1 bash script,2013-03-01 04:10:00,
2013-02-28 23:20:00,32.0,25.0,29.95,NE,39,5.0,-999.0,80,-99.99,,,1.00,ADS-WS1 bash script,2013-03-01 04:20:00,
2013-02-28 23:25:00,32.0,25.0,29.95,NNW,348,7.0,-999.0,80,-99.99,,,1.00,ADS-WS1 bash script,2013-03-01 04:25:00,
2013-02-28 23:30:00,32.0,25.0,29.95,NNE,21,2.0,-999.0,80,-99.99,,,1.00,ADS-WS1 bash script,2013-03-01 04:30:00,
2013-02-28 23:35:00,32.0,25.0,29.96,NE,43,4.0,-999.0,80,-99.99,,,1.00,ADS-WS1 bash script,2013-03-01 04:35:00,
2013-02-28 23:40:00,31.8,25.0,29.95,NNE,12,2.0,-999.0,80,-99.99,,,1.00,ADS-WS1 bash script,2013-03-01 04:40:00,
2013-02-28 23:50:00,31.8,25.0,29.95,NE,38,2.0,-999.0,79,-99.99,,,1.00,ADS-WS1 bash script,2013-03-01 04:50:00,
2013-02-28 23:55:00,31.8,25.0,29.95,NE,43,4.0,-999.0,80,-99.99,,,1.00,ADS-WS1 bash script,2013-03-01 04:55:00,